Theta_e
304 305 305 305 305 305 305 305 305 304 304 287 285 284 283 278 276 285 286 287 286 278 267 273 272 268 270 275 276 276 277 275 274 276 277 276 277 276 276 273 273 273 273 273 274 275 269 274 275 277 278 277 280 280 278 278 277 278 277 279 279 284 267 270 271 276 279 279 278 276 275 280 280 279 277 279 279 280 276 275 277 273 271 271 268 268 272
304 304 305 305 305 305 305 305 305 304 303 292 286 280 279 279 279 282 288 286 285 277 272 267 267 267 269 274 276 276 277 274 274 274 274 275 274 274 274 275 277 272 275 272 273 275 267 273 274 273 277 277 279 278 277 278 278 278 278 278 280 273 272 274 268 268 268 270 275 276 278 275 270 275 277 277 277 277 276 273 267 273 269 270 271 264 265
304 304 305 305 305 305 305 305 305 304 303 294 288 285 281 281 281 281 281 286 284 277 270 265 261 269 267 266 271 272 274 275 277 277 275 276 275 274 272 275 276 275 275 269 271 271 273 267 273 273 274 275 277 277 275 277 277 278 282 286 281 274 270 266 269 270 269 267 267 269 268 274 277 277 276 277 277 276 274 275 267 267 271 270 265 261 272
305 304 304 305 305 305 304 304 304 304 303 299 284 281 280 278 274 275 273 278 279 278 277 275 271 264 265 268 270 273 270 276 274 275 272 275 274 274 274 273 275 272 273 268 266 271 273 269 266 270 269 272 274 275 273 275 278 283 286 281 276 267 268 267 266 269 268 269 268 271 275 275 274 276 276 276 275 275 275 272 268 270 269 267 269 271 275
305 304 304 304 305 305 304 304 304 304 302 299 282 279 277 278 272 271 271 270 275 270 275 273 273 272 274 268 269 269 270 272 274 275 271 276 274 273 273 271 271 269 270 268 268 267 267 270 267 268 268 272 271 274 272 273 279 283 283 280 273 267 270 269 267 269 270 272 268 272 273 274 275 275 277 275 275 274 272 272 270 271 275 267 269 270 273
305 304 304 304 304 304 304 304 304 303 301 299 285 277 279 276 275 274 276 274 270 268 271 276 274 275 275 270 272 270 269 269 269 274 275 274 273 271 269 271 273 271 271 271 267 266 262 265 267 270 271 268 271 273 274 273 278 279 276 278 275 266 265 270 268 269 270 271 271 271 272 274 274 274 273 273 274 275 274 272 275 275 270 273 273 274 274
305 304 304 303 304 304 304 304 303 303 300 296 282 280 279 277 275 277 278 274 269 274 276 277 275 274 275 274 271 269 269 269 271 271 272 272 271 274 268 269 272 272 272 271 268 267 264 266 264 265 267 268 267 269 269 274 276 276 274 275 275 272 266 269 269 268 269 270 269 269 272 272 274 273 273 273 274 274 274 274 275 276 274 273 274 274 277
305 304 304 304 303 303 303 303 303 302 299 290 284 280 279 277 276 275 276 275 273 271 273 276 273 270 276 270 270 268 270 270 272 273 271 268 271 274 270 271 273 272 271 272 270 270 270 271 269 270 267 262 269 268 270 271 275 275 273 272 274 273 268 277 267 265 269 269 269 268 267 270 273 272 269 270 271 274 274 274 275 275 274 273 274 274 275
305 304 304 304 303 303 303 303 303 302 298 285 283 282 282 280 278 278 276 271 273 273 268 272 272 271 269 270 272 273 272 271 273 272 275 273 271 272 272 273 273 271 271 270 271 273 272 272 273 273 272 269 273 270 267 274 271 272 272 270 270 270 265 264 262 266 268 268 266 267 266 268 270 269 268 269 273 275 274 275 276 276 275 272 274 274 277
305 305 305 304 303 303 303 302 303 300 296 282 280 281 280 280 281 278 274 272 278 274 272 271 269 267 271 273 272 275 273 273 272 271 273 274 275 274 274 273 273 268 269 269 271 273 274 274 274 274 274 274 274 274 273 274 273 270 272 269 265 263 262 262 256 263 262 267 264 264 263 265 268 271 272 271 272 272 273 273 274 277 276 274 272 276 278
305 305 304 304 303 303 302 302 302 299 288 282 280 280 280 282 281 281 277 273 271 267 269 269 271 273 272 272 271 271 271 272 272 271 269 274 274 274 274 273 269 270 269 273 276 275 275 275 275 275 275 274 274 273 274 274 275 274 272 262 263 263 259 258 260 266 260 264 260 263 265 263 262 269 270 272 273 273 276 275 276 275 279 278 279 278 276
305 305 304 304 304 303 303 302 302 298 293 283 282 280 281 281 280 278 273 273 273 269 271 268 269 269 271 273 271 272 271 271 271 273 272 270 272 274 273 272 272 267 273 276 276 277 276 277 276 274 274 273 273 273 272 273 273 275 274 272 263 263 260 257 252 261 262 259 259 268 260 262 268 272 273 273 273 273 274 274 274 275 278 276 276 275 274
306 306 305 304 304 303 302 302 301 299 294 282 284 282 282 282 282 279 277 275 270 269 268 270 269 269 271 270 270 270 270 269 269 273 271 271 270 272 274 272 270 273 276 275 273 272 271 266 268 268 268 268 268 269 269 269 272 272 274 273 269 259 263 262 261 257 260 260 255 260 261 265 268 269 271 273 273 273 273 274 276 276 276 278 277 278 276
306 305 305 304 304 303 302 302 301 300 297 291 283 282 281 281 279 278 277 274 276 269 271 271 269 271 271 272 271 270 270 271 269 270 268 272 272 271 274 277 274 277 275 274 270 270 267 259 257 259 266 263 265 265 269 269 270 271 271 272 273 270 264 261 262 260 264 257 256 267 266 271 268 268 270 273 272 272 272 269 272 274 277 277 279 279 276
306 306 305 305 304 303 303 302 301 300 297 295 283 281 282 281 282 281 279 280 275 273 271 273 272 272 272 270 271 270 268 268 271 272 270 271 269 272 275 276 275 273 275 274 264 263 263 260 261 261 262 263 264 264 265 264 267 269 270 272 271 272 269 266 266 264 258 261 259 259 260 259 263 268 271 275 274 275 272 273 273 274 275 279 279 279 278
307 306 306 305 304 304 303 302 302 301 298 296 284 281 281 282 282 281 280 278 276 273 274 277 274 273 271 269 271 271 269 268 269 268 268 267 267 272 274 275 276 275 272 265 261 257 259 266 260 259 263 258 260 261 263 261 265 267 269 269 269 268 269 267 264 263 261 260 259 257 260 265 269 272 273 275 275 275 272 270 270 275 275 277 279 279 278
307 306 306 305 305 304 303 303 302 302 300 297 283 282 282 284 282 280 279 278 278 278 276 276 274 273 271 270 271 271 270 266 270 268 264 267 271 271 273 275 275 275 271 267 259 265 261 255 253 255 257 258 261 262 263 259 260 262 269 266 262 260 259 261 263 259 256 254 258 261 258 264 271 270 273 275 274 274 274 264 265 272 274 275 277 278 277
307 306 306 306 305 304 303 303 303 302 301 300 288 283 283 283 281 282 280 278 276 275 275 278 277 273 273 273 272 272 272 270 269 269 268 269 267 270 271 271 271 273 269 270 258 256 255 256 263 260 262 261 261 262 263 260 260 263 263 260 258 257 258 259 265 256 262 267 256 256 264 270 271 271 274 274 274 274 266 267 271 273 273 275 277 278 277
307 306 306 306 305 304 304 303 303 302 302 300 288 286 285 283 282 282 279 278 276 276 279 279 279 277 276 275 273 273 273 275 273 271 267 269 268 268 272 270 275 268 270 264 263 262 261 259 258 255 261 259 259 261 263 263 263 261 264 263 262 258 254 259 256 257 261 259 262 266 266 271 272 273 275 275 273 266 267 275 273 273 273 274 277 277 277
306 306 306 306 306 305 304 304 303 303 302 301 295 287 285 284 285 284 282 276 275 275 277 278 278 278 277 278 274 273 272 272 273 271 269 268 270 271 271 268 270 266 266 267 267 258 262 261 259 256 259 253 257 262 260 259 264 265 263 265 265 267 265 261 260 259 256 255 258 260 264 269 276 276 274 275 270 272 275 273 271 273 273 275 275 277 276
306 306 306 306 306 305 304 304 303 303 303 302 298 289 288 285 285 284 283 281 278 276 279 279 279 280 278 278 280 280 278 277 275 274 275 267 273 273 265 266 269 268 266 267 266 262 261 260 257 259 260 262 262 264 260 259 261 264 268 266 266 269 266 257 257 266 265 259 262 266 273 274 277 279 276 275 277 276 274 274 277 273 273 275 275 276 276
306 306 306 306 306 306 305 304 303 303 303 303 299 289 287 285 284 285 284 283 280 276 277 280 279 279 281 281 280 281 281 279 280 279 275 274 273 274 268 269 270 268 264 262 263 264 263 260 257 259 263 260 259 260 257 263 262 261 260 264 267 271 271 267 266 269 269 267 271 274 271 275 279 279 276 274 276 275 273 275 275 275 274 275 275 276 276
306 306 306 306 306 306 305 305 304 303 303 303 298 290 288 285 285 287 285 282 281 281 281 277 279 280 283 284 283 282 280 281 279 277 279 276 271 271 271 272 272 272 266 268 271 267 265 263 263 262 258 261 268 258 259 262 261 258 267 271 272 268 269 266 270 271 269 274 276 275 272 271 276 279 276 276 275 274 273 275 275 275 275 276 277 276 277
306 306 306 306 306 306 306 305 305 304 303 303 299 291 288 286 287 284 285 283 277 274 279 279 279 279 280 282 281 283 282 280 282 280 279 281 275 269 272 274 272 270 268 268 269 270 263 262 264 263 265 264 263 261 264 264 265 263 263 268 268 268 268 270 268 267 270 271 272 274 277 275 276 278 280 279 276 276 273 272 276 276 275 275 276 274 275
306 306 306 306 306 306 306 305 305 304 304 303 300 297 291 286 287 286 284 279 276 276 276 273 277 281 280 280 280 281 282 282 283 280 280 280 281 278 275 276 276 276 274 272 267 269 262 267 264 264 264 266 272 269 266 266 269 268 267 270 267 272 271 270 271 267 271 275 273 271 267 270 271 276 277 278 280 278 277 277 275 274 271 273 276 274 273
306 306 306 305 306 306 306 305 305 304 304 303 301 292 290 289 288 287 286 283 276 275 273 275 278 281 280 280 280 281 282 282 281 281 281 280 280 280 277 276 275 274 271 271 271 271 263 260 255 257 265 269 272 266 263 270 267 268 269 273 273 271 273 268 268 271 273 275 277 278 276 276 277 275 274 277 279 280 279 277 276 275 275 274 273 274 276
306 306 305 305 305 305 305 305 305 305 304 304 300 295 293 289 289 288 286 283 283 280 275 277 277 276 279 279 282 281 282 281 281 281 280 279 279 279 279 277 276 274 274 271 269 264 259 260 263 269 265 266 268 264 264 267 268 266 266 271 272 272 272 270 270 269 272 274 277 275 271 274 279 277 278 278 278 278 278 277 275 275 275 275 275 275 274
306 306 305 305 305 305 305 305 305 305 304 304 301 296 294 290 288 291 289 287 286 282 276 272 274 278 281 278 282 280 280 281 281 281 280 279 279 280 279 278 276 274 273 273 268 268 266 267 270 265 263 261 267 269 267 267 267 267 270 273 275 276 277 275 274 273 275 281 280 277 279 280 280 278 276 277 278 277 277 277 277 277 277 277 276 276 275
306 306 306 305 305 305 305 305 305 305 304 303 297 293 290 292 292 292 292 291 286 278 274 276 276 275 279 280 281 281 281 281 281 280 279 278 279 279 279 278 278 276 273 270 269 266 264 267 268 268 266 269 269 265 264 265 262 270 276 278 276 279 280 279 281 281 281 282 276 276 277 279 278 275 274 275 275 277 276 277 277 278 278 277 276 277 277
306 306 306 305 305 305 305 305 305 304 304 299 292 288 286 288 292 291 293 292 288 285 279 276 274 277 273 277 277 277 279 281 280 279 279 278 278 278 279 278 277 279 275 273 271 269 269 265 266 267 268 271 271 263 264 260 261 273 279 279 279 279 280 281 282 280 281 277 276 277 278 279 278 275 274 273 273 275 276 276 277 277 277 277 276 276 277
306 306 306 305 305 305 305 305 305 304 303 295 292 285 283 282 288 293 294 292 290 287 278 275 276 272 272 275 276 277 278 280 278 278 278 278 278 278 278 279 278 279 273 270 269 271 269 265 268 270 268 273 274 265 266 260 265 267 277 280 280 279 279 280 281 281 282 281 273 271 272 274 274 275 278 278 274 273 275 276 277 276 277 276 276 277 277
306 306 306 305 305 305 305 305 305 304 301 294 290 288 287 287 290 293 296 293 290 285 280 277 275 273 275 278 276 277 279 279 280 279 279 280 277 278 277 279 277 279 280 273 271 268 268 268 271 269 271 278 276 262 259 264 271 275 281 279 280 280 281 280 280 280 280 281 279 277 278 280 280 278 279 279 278 276 276 277 277 275 275 276 275 275 275
306 306 306 305 305 305 305 305 305 303 299 299 300 297 296 296 297 297 296 292 289 284 282 279 275 274 273 272 274 276 278 279 276 278 276 281 277 278 275 278 277 275 282 277 271 270 270 272 269 269 272 274 274 267 264 270 273 279 281 282 283 282 280 279 279 280 280 280 279 277 277 279 281 281 280 280 280 278 274 274 275 273 272 271 272 274 273
306 306 306 305 305 305 305 305 305 304 303 297 291 291 292 298 298 297 294 291 286 284 282 280 276 274 273 274 272 274 279 277 275 278 274 279 276 277 275 275 277 274 276 276 276 272 270 270 269 269 271 271 269 264 267 273 277 278 280 281 282 282 281 276 277 278 279 279 278 279 280 281 282 281 277 276 276 274 273 273 271 271 271 271 273 274 274
305 305 305 305 305 305 305 304 301 298 294 293 292 290 296 298 297 296 294 289 283 281 280 278 279 274 274 272 270 273 277 276 274 278 276 275 279 275 276 273 275 273 273 277 272 272 271 272 273 269 270 270 270 269 272 275 277 278 279 279 281 281 280 279 280 281 281 279 275 276 277 278 278 278 279 280 280 280 276 273 272 272 272 273 274 274 273
305 305 305 305 305 304 302 301 298 294 291 291 288 295 298 297 297 294 294 290 286 282 279 279 280 276 278 275 273 272 280 273 272 272 273 275 275 276 275 275 271 275 275 274 271 272 272 277 272 269 273 270 270 273 276 278 277 279 280 280 282 282 281 280 281 281 276 277 276 277 277 278 277 277 278 278 278 278 278 275 273 271 272 274 275 275 274
305 305 305 304 302 297 293 293 297 295 291 293 295 298 297 295 290 291 289 288 287 288 281 280 276 277 280 276 272 273 279 272 276 273 274 273 273 276 274 274 271 277 274 272 272 271 275 280 275 272 271 271 275 279 280 279 279 279 280 282 283 283 283 283 282 280 275 272 274 276 277 278 277 277 276 276 277 278 276 275 275 274 273 273 274 275 275
305 304 301 295 293 289 288 291 291 295 297 297 296 290 288 289 282 284 283 281 285 287 283 283 279 281 283 279 275 280 279 275 276 274 272 275 273 271 274 273 273 278 270 272 271 278 275 274 272 272 274 279 280 280 280 281 282 283 283 283 284 284 284 284 278 277 275 274 274 276 276 274 274 275 275 276 276 276 277 277 277 277 276 276 276 276 276
303 298 293 292 290 287 288 288 297 298 296 293 291 284 282 285 282 280 279 281 282 279 284 282 279 283 281 280 279 283 280 277 274 273 270 278 274 271 274 269 276 275 270 271 272 280 271 272 271 272 271 276 277 279 281 282 283 284 284 284 284 284 284 283 279 280 280 280 282 283 281 279 277 276 276 276 277 277 277 277 277 276 276 276 276 276 276
296 292 290 289 288 287 292 297 298 294 291 285 285 284 279 284 279 275 283 274 275 279 282 277 284 283 283 280 278 276 285 279 273 272 274 274 282 274 276 271 274 273 267 269 270 276 269 266 270 268 269 275 277 280 281 282 282 283 284 285 285 285 284 284 283 283 283 283 284 284 283 281 281 281 280 278 276 276 276 277 277 277 277 277 277 277 277
293 290 290 287 286 289 293 295 293 289 286 283 283 282 280 277 280 280 279 274 277 275 282 281 283 281 284 284 283 278 283 281 279 280 278 273 280 278 272 271 279 271 270 269 271 270 269 266 267 269 275 274 277 279 281 281 282 283 284 284 284 284 284 284 284 284 284 283 282 282 282 282 282 281 281 281 281 280 279 279 279 277 276 276 276 277 278
293 292 290 290 289 291 291 288 286 284 283 285 280 276 280 278 281 275 278 274 275 277 275 281 278 280 280 284 283 282 278 281 279 278 277 273 281 274 273 272 274 272 269 272 272 270 269 266 269 273 273 276 278 279 280 280 281 282 283 284 284 284 284 283 283 284 284 283 283 283 283 282 281 281 281 281 280 281 281 281 280 280 279 278 278 278 279
295 292 291 287 286 285 286 282 284 284 277 279 276 273 280 276 277 277 276 278 279 276 274 279 277 286 284 286 279 281 280 283 279 277 277 275 280 276 272 271 269 268 272 268 269 269 266 268 270 275 274 278 279 279 280 282 282 282 283 283 283 284 283 283 283 283 283 282 282 282 283 282 282 282 281 280 280 279 280 280 281 281 282 282 280 279 279
291 290 286 284 283 281 285 275 285 279 272 279 277 273 277 276 277 277 272 275 278 275 279 278 280 281 277 285 280 277 279 281 282 276 274 277 274 272 273 268 270 271 269 266 266 265 271 274 276 279 277 277 279 280 281 281 281 282 282 282 282 282 282 282 282 281 282 282 281 282 282 282 282 282 281 280 280 279 280 281 282 282 281 281 280 280 279
287 284 285 283 279 281 284 272 286 279 271 278 281 278 280 277 279 280 278 280 280 277 281 282 283 281 280 280 279 279 282 275 285 277 274 276 270 273 271 269 268 265 268 270 266 265 263 270 278 278 280 280 280 279 280 281 281 281 282 281 282 282 281 281 281 281 281 282 282 281 280 280 280 280 280 281 281 281 281 281 282 281 280 279 279 278 278
286 283 283 278 274 281 281 274 283 274 276 283 281 281 282 283 283 283 281 278 278 281 280 282 282 282 279 281 280 278 279 278 277 277 277 275 271 271 273 270 269 267 268 264 262 268 273 278 280 280 281 281 282 282 281 281 281 281 280 280 282 283 283 282 281 281 281 282 281 279 279 279 278 278 279 280 280 280 281 281 281 279 277 276 277 277 278
284 285 284 281 278 280 284 277 280 282 282 284 285 285 285 285 286 283 280 281 282 282 283 284 284 282 279 277 276 275 274 277 276 277 275 270 272 271 273 271 270 270 266 268 270 272 275 279 280 281 280 281 282 283 283 282 282 281 281 282 283 283 284 282 281 280 281 280 278 277 278 278 278 278 278 278 278 279 278 278 278 277 276 277 277 276 273
283 285 286 279 275 280 280 280 286 285 285 286 286 287 286 284 281 278 279 283 283 284 282 282 280 281 277 279 280 276 277 276 275 274 276 273 274 267 268 268 267 270 271 271 274 278 279 280 278 279 280 282 282 283 282 282 282 282 282 282 282 283 283 283 281 281 280 279 278 279 278 278 277 277 277 277 278 278 277 277 277 276 276 276 275 274 273
288 286 282 280 284 283 282 285 286 283 284 285 286 286 282 282 283 282 281 283 284 282 284 282 281 281 275 280 275 276 272 277 272 272 274 270 271 268 269 264 268 268 273 275 277 280 281 278 278 280 280 281 282 282 283 283 283 282 282 282 282 283 283 283 283 283 280 279 279 278 278 278 277 276 276 275 275 277 277 276 276 276 276 275 274 274 273
285 281 284 282 280 280 283 286 285 282 284 284 283 283 284 284 283 279 283 283 283 283 283 283 284 278 276 277 268 274 273 277 274 275 271 268 272 271 269 265 269 272 276 279 279 281 277 275 278 279 281 281 282 283 283 283 282 283 283 283 283 283 283 283 283 282 281 280 279 279 278 276 276 276 276 276 277 276 273 275 275 275 275 274 274 274 274
285 285 284 287 284 282 284 280 279 280 282 282 281 282 283 283 281 279 284 283 283 282 281 278 278 274 274 272 273 271 270 278 273 272 273 272 275 270 271 272 276 279 280 281 278 282 283 282 282 283 283 282 282 283 284 284 284 283 283 283 283 283 282 282 281 282 281 281 280 274 278 278 279 279 277 276 277 276 275 273 273 274 275 274 274 274 274
283 279 279 285 287 287 286 286 286 285 285 285 285 285 286 283 283 282 285 284 282 279 277 281 277 273 273 271 275 276 276 272 268 274 273 274 276 273 274 277 279 282 283 283 277 278 281 283 283 284 284 284 284 284 284 284 283 283 283 283 283 282 281 281 281 281 281 282 282 282 282 282 280 280 279 279 278 276 276 278 277 274 273 274 273 272 273
Wind_Speed
17 17 18 18 18 18 18 19 19 20 16 3 1 1 1 3 1 1 2 1 2 6 4 0 3 1 2 3 1 2 1 1 2 1 2 1 1 1 1 2 1 1 1 0 2 1 2 3 3 3 1 4 4 3 6 6 2 3 4 1 2 5 4 5 2 4 3 4 1 0 0 3 0 2 2 1 0 0 2 2 3 6 1 2 1 0 5
17 17 18 18 18 18 18 18 19 19 14 2 2 3 2 1 1 1 1 2 3 2 1 0 1 2 3 1 1 2 2 0 2 1 2 1 3 0 1 2 0 2 1 1 0 2 2 1 3 4 2 3 3 3 8 8 3 2 1 1 3 1 2 5 4 3 3 2 2 1 1 3 1 0 1 0 0 0 1 3 1 5 4 3 7 5 3
17 16 18 18 18 17 17 17 18 18 12 4 2 1 2 1 1 1 6 7 5 0 2 4 3 1 1 3 1 4 1 3 2 2 1 1 0 2 2 1 1 2 1 0 1 1 2 2 1 0 2 5 3 3 10 8 5 3 4 4 2 8 1 2 5 8 8 4 4 6 5 3 1 0 1 2 1 2 2 3 1 2 2 2 2 4 6
16 17 17 18 18 17 16 17 17 17 13 4 5 3 2 0 0 4 4 7 5 5 0 3 5 4 0 1 0 0 2 0 1 4 2 1 0 1 3 3 3 1 1 1 3 1 2 0 2 4 5 5 4 2 10 4 8 12 4 5 4 4 2 3 2 1 2 2 3 3 2 2 1 1 2 3 2 1 2 3 3 4 4 4 7 3 5
15 17 16 17 18 17 17 17 17 16 13 3 5 3 2 1 2 1 1 4 5 2 3 2 2 1 2 0 0 1 0 3 2 3 0 1 1 0 2 1 2 2 2 0 1 1 1 3 1 2 3 3 3 9 6 5 13 16 1 5 4 4 5 2 4 4 1 2 3 3 2 0 0 1 1 2 3 3 1 2 2 4 9 3 4 5 1
14 15 15 16 18 17 17 17 17 17 12 2 1 2 3 1 1 2 0 1 1 2 3 4 2 1 0 0 1 1 2 2 0 2 0 0 0 0 1 3 2 4 3 2 1 2 1 1 1 4 3 3 5 5 2 4 10 11 3 4 2 4 3 1 2 0 2 3 3 3 2 0 1 1 0 2 4 1 0 2 2 5 4 7 3 7 3
14 14 14 14 16 17 18 17 17 16 13 2 2 2 1 2 2 1 1 0 1 1 0 2 3 3 1 0 1 1 0 2 2 1 4 2 0 1 0 4 4 3 4 2 2 2 1 3 1 1 2 3 4 6 5 1 8 10 6 6 2 3 1 2 0 2 1 0 1 3 2 1 1 1 1 1 1 1 0 0 1 1 0 2 5 3 8
13 13 14 13 15 16 17 17 18 17 12 2 3 2 3 1 2 0 3 5 3 0 1 1 1 1 2 1 1 2 2 1 1 1 1 2 1 0 2 3 3 2 2 1 2 3 0 1 1 1 3 1 0 1 3 6 6 6 5 3 5 2 1 2 1 1 0 1 2 1 4 1 1 1 1 1 1 1 0 1 0 1 0 1 2 1 8
12 12 13 13 13 14 15 15 17 18 12 2 3 0 0 1 1 5 6 1 0 1 1 1 1 0 1 0 2 1 3 3 2 1 1 1 2 1 1 1 5 1 1 1 2 3 3 1 2 1 2 1 1 2 2 3 6 8 6 5 6 6 1 3 2 1 0 3 6 6 6 1 2 2 3 3 2 1 4 3 5 4 4 1 1 1 7
12 12 12 12 12 12 13 13 15 17 10 4 1 1 1 3 0 2 4 1 0 0 1 0 1 1 3 2 1 1 3 2 1 1 2 1 1 2 2 3 0 2 1 1 3 4 3 5 5 3 3 1 3 1 1 2 1 3 3 0 4 1 3 2 3 1 1 1 4 7 4 1 4 9 10 12 5 1 1 1 2 6 8 6 4 9 6
13 11 11 11 11 10 11 10 11 12 6 3 1 0 2 3 3 2 2 1 1 1 1 1 1 1 3 0 1 0 1 1 1 1 2 1 1 1 1 1 1 1 1 1 1 2 3 2 2 1 1 2 3 2 2 4 3 1 1 1 1 2 5 3 1 0 2 5 7 2 1 1 6 0 2 1 5 9 8 6 10 10 11 6 6 6 3
13 12 11 11 11 10 10 8 7 7 4 1 2 1 3 1 4 4 2 1 1 0 1 4 5 1 1 1 0 1 1 2 2 0 2 1 1 1 2 1 1 3 1 1 2 1 1 0 1 0 0 2 3 4 3 2 1 2 0 2 3 5 5 3 3 2 1 6 4 1 3 8 3 2 1 3 2 2 5 8 6 4 9 4 4 3 4
13 14 12 11 11 10 9 5 4 2 3 2 0 2 2 1 1 3 4 3 2 5 1 2 0 0 1 2 0 0 1 1 1 1 0 0 2 1 1 1 1 2 2 2 3 1 1 2 4 2 5 3 2 2 1 1 1 3 1 1 1 3 7 6 2 3 1 2 5 1 4 3 2 4 1 1 2 0 1 8 9 11 11 12 7 8 5
15 14 14 12 11 8 8 4 1 3 3 2 2 2 2 1 1 1 2 3 2 3 2 0 1 1 3 3 3 0 0 1 1 1 1 0 1 2 1 1 1 2 1 1 3 2 2 4 2 3 2 3 1 0 2 0 1 1 3 2 1 6 3 3 2 1 3 3 4 10 7 9 4 1 2 5 3 4 5 4 9 9 12 12 12 9 5
16 15 14 12 12 11 7 5 3 2 3 4 6 1 1 1 1 0 1 1 2 1 3 2 3 7 7 2 3 2 0 1 2 3 1 0 1 2 1 1 2 3 2 2 3 4 1 0 1 1 2 2 1 2 2 0 1 0 1 1 3 1 1 2 2 1 4 3 1 5 3 2 8 6 1 4 3 6 4 3 9 4 10 16 16 13 10
15 14 13 12 12 12 12 11 8 5 6 5 4 1 2 3 3 4 1 3 4 1 6 10 9 7 6 3 5 6 4 2 1 1 2 1 2 3 1 2 1 1 4 6 2 2 1 0 2 1 1 2 1 1 1 4 1 1 1 1 3 3 6 5 4 3 3 2 2 3 5 8 7 5 5 6 5 5 3 3 8 6 10 13 16 15 13
16 16 15 14 14 14 12 10 10 9 10 8 2 2 2 4 2 3 3 2 0 6 1 8 6 8 7 4 1 1 3 2 5 2 2 1 0 0 1 2 1 2 2 2 4 2 3 3 1 1 2 2 2 1 1 1 1 4 3 3 9 7 5 3 3 2 2 5 2 5 5 3 3 3 1 4 3 4 2 2 7 2 5 8 11 13 14
17 17 16 15 15 15 13 13 11 10 11 10 5 2 2 2 3 3 2 2 2 5 4 9 10 4 5 8 6 2 5 3 2 1 1 1 0 0 0 1 0 3 3 0 1 2 1 1 2 2 2 0 1 1 2 3 1 1 1 1 0 2 2 5 5 3 4 5 4 4 8 6 4 5 4 4 4 2 3 7 7 3 5 8 12 11 10
18 17 17 17 16 16 15 14 14 13 13 9 5 1 2 4 3 1 3 2 2 3 1 4 3 2 2 3 3 5 3 7 7 5 1 0 2 3 4 2 1 1 5 3 2 1 1 3 1 0 1 1 1 3 1 0 4 1 1 1 1 1 2 0 3 2 4 5 4 8 7 9 7 0 6 4 5 3 9 9 1 3 4 4 7 10 10
19 19 18 18 18 17 16 15 14 14 14 14 8 4 1 3 5 5 3 3 2 3 3 7 5 7 5 8 7 4 2 2 3 5 6 3 2 3 3 1 1 3 0 1 1 1 1 3 1 1 2 2 4 3 1 4 1 6 4 3 3 8 6 6 4 3 4 2 1 4 4 1 7 14 4 0 4 7 5 1 1 1 2 8 5 8 10
20 19 18 18 19 19 18 17 16 15 16 15 10 4 2 2 4 2 1 3 4 1 6 2 1 5 5 5 9 12 12 9 9 4 6 3 7 6 4 4 6 4 5 5 4 2 3 2 1 1 1 3 1 0 3 1 5 4 0 3 3 4 1 2 4 7 7 5 5 8 10 6 11 16 9 10 12 2 3 4 1 1 4 5 5 5 9
21 20 20 19 19 20 19 18 17 16 16 17 10 4 3 1 2 1 2 1 2 5 2 2 3 3 6 3 4 4 5 6 10 7 9 5 3 5 3 5 5 3 2 4 2 0 0 1 1 1 2 1 2 4 1 0 4 2 1 1 3 9 6 6 2 5 6 9 10 8 3 6 14 10 1 2 5 2 3 3 2 5 4 4 3 8 7
22 22 21 20 19 20 20 19 18 17 17 18 11 5 5 4 2 2 2 1 2 3 1 1 1 3 2 5 3 3 1 0 5 3 6 9 2 1 4 5 3 2 2 1 3 3 2 7 4 4 1 4 7 2 1 4 4 1 3 8 4 3 1 2 0 6 5 10 13 6 1 2 9 11 5 2 1 1 4 4 2 6 5 9 9 7 10
23 23 22 21 20 21 21 20 19 18 19 20 13 6 5 4 6 5 1 2 1 3 4 1 1 6 8 11 3 1 2 1 5 4 2 5 7 1 2 3 1 1 1 4 4 4 4 3 1 2 2 4 4 1 4 6 8 4 1 5 3 3 2 1 3 3 3 8 3 6 14 5 8 13 14 9 5 6 4 4 7 5 4 6 6 4 6
24 24 23 23 22 21 21 20 20 19 18 20 16 7 5 3 3 6 5 3 1 2 6 3 7 2 2 1 1 1 5 1 2 4 2 1 4 7 6 4 6 7 5 6 3 7 3 2 1 1 3 6 7 7 1 1 8 4 5 5 1 4 3 2 6 1 5 11 1 3 1 4 5 8 10 14 14 12 9 10 6 4 4 5 6 4 4
26 25 24 24 23 22 22 21 21 20 19 20 16 8 7 5 5 3 3 3 3 2 2 5 3 2 1 1 2 2 0 3 4 4 3 3 3 4 10 5 3 4 6 3 4 4 4 2 2 1 4 7 2 3 3 7 2 2 5 9 5 1 5 5 4 5 10 14 20 19 10 13 15 13 11 12 12 11 10 9 10 7 7 7 5 6 8
26 26 25 25 25 23 23 22 21 21 20 19 14 9 8 5 8 10 7 6 3 5 2 6 3 3 1 3 1 1 1 3 2 3 3 2 4 3 7 7 8 4 5 3 2 6 3 2 4 6 5 5 2 3 1 3 1 4 6 6 4 4 8 2 1 4 11 13 11 7 3 7 10 8 15 17 17 13 13 7 5 8 11 10 10 11 9
26 26 26 25 25 25 24 23 22 22 20 19 12 9 7 8 8 10 8 7 8 5 2 2 2 2 1 3 1 1 1 2 5 5 4 2 3 6 8 8 7 5 3 6 1 2 3 6 8 3 0 2 1 6 2 0 2 4 11 12 10 13 12 8 8 7 12 15 7 7 6 7 9 4 5 9 9 9 12 14 14 13 13 11 11 13 9
26 26 26 26 26 26 25 24 23 22 22 17 6 7 6 7 8 10 10 7 4 4 1 2 1 2 3 1 2 1 2 3 5 6 5 4 4 5 7 8 7 5 3 2 2 3 5 5 3 6 4 6 4 4 3 4 5 11 18 6 14 18 7 15 21 14 14 15 1 6 5 9 6 3 4 5 5 8 11 12 11 13 12 10 11 14 14
26 26 26 27 26 27 27 26 25 23 23 10 5 3 5 5 8 10 10 8 6 5 1 1 3 5 2 1 2 0 0 2 4 5 6 5 5 5 6 7 3 3 3 5 7 4 4 3 2 2 2 1 3 1 2 2 4 13 10 8 15 12 15 18 15 12 17 3 2 6 8 9 5 2 4 4 4 6 7 10 12 11 10 8 12 12 11
27 27 27 27 27 27 27 27 26 27 23 11 9 5 7 10 8 12 13 9 9 6 2 2 6 2 4 0 1 3 3 3 4 5 5 4 3 3 2 1 0 5 3 0 1 4 4 3 2 3 1 6 5 4 6 4 7 6 11 12 14 14 17 21 15 14 17 15 3 0 3 7 4 5 11 12 8 8 7 7 8 8 8 6 11 12 11
27 27 27 27 27 28 27 28 28 26 16 15 17 11 4 3 8 18 21 13 9 4 4 2 3 1 3 2 0 2 1 2 2 2 1 3 2 2 1 4 3 3 3 4 3 1 4 3 4 3 5 6 6 1 3 4 14 20 17 7 6 12 14 13 9 11 14 16 10 10 13 18 11 10 13 4 2 9 12 12 10 6 8 8 7 7 8
27 27 27 27 27 28 28 28 29 23 14 14 6 6 3 4 8 19 18 13 5 2 2 2 5 1 2 4 2 1 3 3 1 2 2 3 4 3 3 1 0 1 4 2 4 5 2 5 3 3 6 4 5 3 5 15 21 24 23 19 16 13 9 4 5 11 13 13 10 15 15 13 12 9 11 13 12 7 7 8 9 5 4 5 7 9 7
27 25 26 26 26 26 27 28 27 27 18 10 12 11 3 9 18 22 16 9 4 2 2 4 3 4 4 1 1 2 6 6 5 6 2 1 0 3 3 2 2 2 4 8 3 2 1 2 4 3 3 5 2 2 10 19 18 22 23 25 23 19 11 4 8 13 17 15 10 13 13 12 14 11 5 7 8 5 4 5 3 4 6 7 9 10 9
24 26 26 27 26 26 26 25 17 15 15 12 6 3 11 19 18 23 19 8 6 3 3 4 2 3 2 0 4 5 4 4 4 6 6 1 2 3 2 3 2 5 5 2 2 4 4 6 5 3 9 5 5 10 16 13 12 18 21 23 24 15 11 12 18 22 19 9 6 8 9 13 16 16 17 17 14 11 8 7 7 7 8 9 10 10 8
27 26 23 24 25 21 15 18 14 12 10 10 4 15 25 19 20 15 15 4 3 5 5 5 6 10 8 9 8 3 6 1 1 3 2 3 1 0 1 2 4 6 1 3 5 3 6 4 5 8 7 7 16 15 16 9 16 19 20 24 23 14 17 19 20 12 4 7 11 10 15 17 18 20 15 14 13 14 12 8 8 7 9 11 13 12 7
25 25 26 24 12 6 10 12 10 12 8 10 17 24 24 15 3 3 5 3 3 1 4 5 8 11 12 6 2 3 8 7 4 3 3 4 5 1 2 2 6 1 2 4 5 7 4 5 7 9 9 17 19 11 13 10 15 18 20 23 24 19 18 19 13 7 5 6 10 13 17 20 18 11 11 13 15 16 11 11 14 12 14 15 14 12 12
24 22 11 5 5 8 6 10 6 14 29 31 24 12 2 4 5 3 1 4 2 2 6 5 11 6 4 6 7 8 6 4 4 6 2 3 5 2 1 2 5 4 9 4 6 7 4 5 8 14 20 18 14 9 9 11 16 17 21 23 22 22 20 13 4 5 7 9 10 17 19 10 11 12 11 16 16 17 17 16 13 10 10 10 12 12 9
17 7 4 4 6 8 7 3 20 34 19 11 8 4 2 2 4 4 6 4 3 10 9 8 13 9 9 11 3 3 6 9 6 4 6 6 4 3 3 3 4 3 6 2 5 11 3 6 5 7 17 16 11 19 15 18 18 18 22 24 21 19 16 12 9 15 17 18 21 23 12 13 15 17 14 16 14 13 13 12 11 12 12 12 12 11 10
6 8 7 6 8 3 7 19 32 19 8 5 2 5 5 4 6 5 3 3 4 6 4 12 10 9 14 15 10 9 3 8 11 9 5 2 2 5 2 3 3 3 6 4 4 5 4 5 4 3 18 11 14 17 14 20 21 24 25 26 22 18 16 18 15 14 17 21 21 19 11 12 13 13 11 11 12 13 13 12 13 12 11 13 13 12 13
6 3 5 7 5 6 10 12 9 5 4 5 3 1 4 4 4 2 2 8 10 4 4 4 6 8 9 10 11 10 2 5 2 4 4 5 2 6 1 3 2 2 7 5 2 4 1 3 5 9 18 7 12 14 18 19 22 24 23 18 17 16 19 20 19 18 18 19 16 15 17 18 16 15 14 14 12 12 12 13 12 12 11 10 12 14 13
7 7 5 8 6 8 10 3 3 5 1 2 4 5 5 2 2 3 4 9 10 3 4 7 10 13 14 15 10 7 1 1 3 2 4 3 4 5 2 0 1 5 7 1 4 1 1 6 8 15 7 8 10 11 16 19 21 19 20 17 17 17 18 18 19 21 18 16 16 17 16 14 15 15 15 14 13 14 14 13 15 12 11 11 10 10 10
23 18 14 7 3 4 2 6 6 3 6 5 5 4 4 6 10 10 6 2 2 3 4 3 0 4 4 9 4 1 4 3 4 2 2 4 2 3 3 1 1 5 5 2 2 2 5 10 11 22 5 9 9 13 14 17 15 15 17 16 15 15 15 17 19 20 17 12 14 15 16 15 15 16 13 10 12 15 15 14 14 14 13 9 9 10 11
9 7 6 3 6 6 5 9 4 4 2 4 9 12 13 11 7 7 6 7 6 5 7 10 10 15 10 7 9 4 3 0 2 3 1 0 4 3 3 5 6 3 4 1 2 8 12 10 19 17 4 6 7 12 11 12 11 11 12 12 11 13 14 14 13 11 15 12 10 13 12 13 14 13 8 10 12 16 16 14 14 14 11 7 9 11 11
9 2 4 4 5 5 7 6 4 7 11 12 9 12 13 23 19 16 18 6 7 9 9 10 12 13 12 4 5 1 4 5 2 5 4 4 2 2 4 4 1 2 2 5 3 5 2 17 21 7 14 12 10 7 8 9 12 12 14 10 12 14 14 12 15 13 14 13 14 11 10 13 11 12 11 12 11 11 12 15 14 9 9 9 9 10 11
10 11 9 7 9 7 8 4 7 8 4 6 12 14 17 20 16 16 6 7 7 10 15 14 13 14 11 5 8 7 4 4 6 4 3 2 5 7 3 1 2 1 2 1 5 15 22 26 13 4 9 10 12 12 11 13 12 9 6 13 19 15 14 14 13 13 14 14 10 7 11 9 10 11 12 12 10 10 12 13 10 8 7 6 11 14 11
3 3 3 1 5 7 4 10 12 7 11 13 18 15 18 17 12 7 7 9 12 11 12 11 15 15 15 8 6 2 2 3 5 3 5 3 5 0 2 3 4 5 6 11 13 15 21 19 8 7 7 8 10 12 13 14 12 12 15 16 16 18 17 11 10 12 14 10 7 8 10 11 11 10 8 7 9 11 12 11 11 7 9 13 13 9 5
10 3 5 8 7 6 15 9 5 2 7 14 14 17 13 7 8 8 9 10 13 14 16 13 11 6 3 3 3 9 8 4 5 4 3 4 2 3 2 2 5 4 6 8 20 21 18 8 5 7 8 10 11 12 13 13 13 16 17 17 18 19 19 16 12 13 12 10 11 11 11 10 10 9 10 13 13 10 10 11 10 8 10 10 8 7 8
6 6 9 5 5 7 12 12 12 15 11 8 12 12 9 11 14 10 9 10 16 17 18 16 11 9 4 4 6 5 5 5 6 6 4 2 5 7 6 7 6 11 14 16 20 19 15 5 6 7 9 8 10 11 12 13 13 15 17 18 19 19 17 16 15 15 10 8 10 11 12 12 8 8 9 7 8 14 11 8 9 10 11 12 11 10 10
9 4 2 4 5 1 5 9 15 16 10 11 10 12 12 14 11 7 10 13 13 13 8 7 5 6 6 6 2 3 3 4 5 3 5 9 7 3 2 6 9 12 15 15 17 19 5 5 5 4 8 10 12 12 13 13 12 14 13 14 14 14 14 15 16 14 11 9 11 13 12 6 8 10 12 15 13 6 3 7 9 11 11 11 11 12 13
2 4 4 4 15 13 15 18 20 15 14 15 14 14 14 16 14 13 12 13 14 15 11 11 7 5 5 3 4 6 6 5 6 8 7 9 5 4 10 17 19 19 24 13 4 9 9 9 8 9 10 12 12 13 13 14 12 13 13 12 14 13 13 12 13 13 13 12 11 9 9 12 14 11 8 5 4 5 6 6 8 9 10 10 11 13 12
6 8 8 9 10 10 16 13 15 19 19 17 17 16 15 14 12 12 10 14 16 18 16 10 8 5 4 9 8 4 3 5 4 5 7 6 5 10 14 20 24 22 18 12 8 7 7 9 12 15 13 13 14 15 14 13 12 11 11 13 13 12 12 12 12 12 13 12 11 13 15 13 7 4 6 7 5 5 8 11 11 11 11 9 10 11 10
Wind_Direction
328 329 333 338 344 349 350 351 352 356 356 55 309 126 16 66 195 249 47 352 92 64 66 278 58 50 237 301 284 236 337 177 259 336 342 347 318 342 35 209 129 243 169 325 317 337 279 339 344 302 289 258 230 340 348 325 168 203 309 351 312 76 78 63 340 325 319 321 14 342 319 138 102 22 66 84 202 240 171 185 179 127 112 75 4 213 249
326 328 330 335 342 347 350 351 352 355 2 150 133 68 134 161 211 332 37 77 118 74 235 340 298 281 311 36 254 217 204 126 0 7 313 38 333 316 278 328 237 222 192 146 219 284 12 253 348 343 335 315 82 38 1 355 11 41 312 103 311 64 332 110 103 18 342 342 358 344 303 67 104 202 296 96 261 61 189 98 24 98 230 168 125 212 285
325 327 328 332 339 344 350 351 350 356 2 130 117 98 166 120 274 238 308 3 60 95 192 138 152 273 301 330 1 353 339 199 187 181 270 347 254 334 296 281 292 268 203 183 198 326 116 283 65 183 299 274 344 343 19 346 9 319 275 287 314 84 225 71 135 156 157 178 214 227 222 202 304 169 352 48 93 130 88 141 74 106 225 108 135 252 254
323 326 327 329 334 342 348 351 350 355 2 117 65 145 54 50 189 304 344 18 40 68 64 109 128 116 141 359 281 128 347 351 259 160 230 168 277 122 290 342 10 306 22 30 31 9 320 131 276 17 326 311 311 318 341 24 352 340 22 24 80 106 93 72 142 158 193 213 231 260 281 320 121 304 38 336 25 50 105 95 86 197 178 191 235 183 310
321 323 326 327 330 338 346 348 350 354 1 105 112 58 101 162 81 340 329 341 51 77 5 41 50 106 185 285 271 311 251 273 326 181 307 166 147 204 51 327 342 305 52 308 49 237 346 320 78 344 286 273 263 305 297 276 0 353 4 12 82 77 68 354 78 51 176 200 217 257 320 157 330 38 328 357 12 338 74 140 207 164 108 279 258 194 148
317 321 324 326 327 334 343 344 347 350 356 102 90 54 357 66 238 112 203 144 284 25 343 44 56 14 42 213 56 286 333 9 301 327 53 162 18 112 287 48 42 297 315 326 353 349 73 16 26 326 250 321 315 347 360 54 359 11 7 336 107 118 116 221 99 246 216 236 264 301 187 200 168 168 177 347 334 55 128 234 219 143 140 203 259 163 186
311 317 321 326 326 331 339 341 343 346 348 107 96 105 329 114 153 155 299 133 255 152 224 61 71 46 61 112 82 304 250 284 219 172 309 17 348 49 347 331 334 341 351 16 262 238 55 337 260 205 303 17 320 1 342 283 23 16 17 12 48 92 41 195 183 155 233 320 307 341 149 154 199 225 200 207 64 354 174 276 292 127 216 262 280 244 237
303 310 316 322 325 329 335 339 341 343 348 53 58 59 134 194 129 234 21 95 128 233 47 94 55 15 336 3 263 159 204 231 330 340 138 346 308 350 99 280 329 323 52 267 308 287 30 104 42 235 117 322 144 146 197 280 331 34 36 341 330 86 208 133 104 69 325 303 2 49 6 111 218 247 226 227 202 184 185 148 284 89 11 4 39 70 282
292 299 308 316 321 325 331 338 342 344 342 10 89 254 103 137 145 149 113 56 317 83 20 79 92 21 319 236 265 141 227 234 190 231 236 202 253 345 226 252 310 37 18 41 265 299 303 335 10 191 174 41 237 118 267 172 308 353 20 18 331 50 132 27 63 84 242 8 6 335 359 291 191 278 280 217 151 236 207 175 202 164 204 146 73 342 267
282 287 293 307 316 319 326 336 345 348 3 120 121 111 234 77 88 87 106 101 342 132 62 345 74 291 220 170 232 216 265 193 119 326 170 246 270 232 209 228 167 315 21 302 243 248 204 247 258 235 245 258 309 348 275 174 268 309 69 242 61 73 112 38 23 77 253 276 37 344 346 30 337 260 223 195 206 192 181 279 249 218 147 126 158 228 212
278 282 284 289 300 311 319 341 344 1 19 57 68 216 184 165 157 58 46 106 342 100 112 342 142 228 143 160 161 25 358 30 345 132 280 82 298 267 219 185 135 266 216 260 236 196 196 197 245 181 214 245 264 276 291 299 275 226 170 67 126 102 92 109 235 171 267 308 332 315 51 218 239 218 234 268 195 189 170 213 208 205 174 200 197 202 175
267 273 279 279 279 291 306 322 349 22 47 191 142 167 213 139 71 88 94 92 252 108 130 219 186 281 155 204 128 177 193 209 219 317 258 274 259 35 50 344 348 330 301 38 348 321 69 177 83 110 157 248 275 245 198 209 261 309 155 277 154 127 102 130 161 91 291 329 359 357 249 237 238 189 206 141 113 46 278 300 294 253 239 298 303 278 220
258 261 265 274 273 275 283 286 325 27 93 130 114 177 235 266 136 143 137 122 227 167 146 259 154 237 253 126 57 97 289 254 323 328 186 237 315 354 225 184 193 308 355 315 20 50 26 263 305 254 273 331 349 105 192 269 223 287 232 105 112 151 116 162 76 133 100 45 32 124 238 234 296 299 312 282 81 179 359 300 258 224 216 218 241 234 225
257 257 259 261 268 266 259 254 254 225 205 165 84 155 179 132 103 73 139 110 257 210 172 149 146 181 140 199 141 22 40 1 341 79 349 263 240 258 278 113 230 303 330 16 44 31 318 38 5 14 289 8 28 40 225 146 294 24 16 17 121 139 99 92 109 232 178 179 156 229 299 328 23 46 220 185 171 161 158 239 282 217 200 191 221 223 197
249 253 255 255 258 260 238 215 201 178 130 105 103 90 129 156 121 137 272 87 206 200 185 199 216 186 158 161 151 97 26 295 5 277 230 278 276 236 225 260 336 15 1 24 350 38 111 105 16 23 328 29 250 240 338 216 287 270 205 139 86 181 178 222 110 285 119 135 351 347 12 295 276 231 221 208 191 157 179 117 284 247 212 195 197 208 193
235 236 238 240 244 249 255 242 207 194 165 125 87 132 221 188 122 97 123 148 123 331 246 200 152 138 149 179 181 151 197 161 201 308 332 308 261 319 352 348 327 38 50 71 93 86 29 2 233 104 222 220 257 21 286 338 341 238 304 15 85 21 65 92 119 145 57 49 144 219 173 245 204 222 196 205 199 145 155 62 285 253 198 197 191 200 187
228 233 236 238 238 243 248 238 209 203 176 164 143 166 251 192 149 133 105 31 54 229 258 141 128 120 101 85 88 226 174 176 167 164 288 295 267 292 322 348 336 60 69 72 3 41 0 33 72 176 287 158 115 241 310 22 293 320 331 17 41 34 354 18 47 83 155 129 122 247 207 233 298 240 220 198 114 145 80 13 279 250 191 194 185 197 182
223 226 227 224 230 231 233 234 214 206 188 189 135 167 241 206 208 109 69 121 140 280 216 180 132 138 183 180 170 198 103 91 72 94 133 214 332 227 197 356 7 338 166 79 58 63 56 143 205 195 238 243 264 37 245 167 192 230 188 110 105 355 355 42 196 165 168 165 257 323 293 265 242 186 198 140 168 120 89 199 236 236 171 183 182 192 175
221 221 222 226 226 226 226 232 233 221 213 188 107 34 264 184 194 95 116 100 108 245 228 235 330 173 189 87 105 160 180 165 161 131 215 1 242 203 149 200 176 193 359 146 79 192 166 259 69 118 202 276 38 198 229 171 237 12 62 80 8 346 99 301 73 116 164 187 173 241 255 241 165 25 148 178 123 178 201 236 248 142 182 196 182 170 170
221 219 221 222 225 225 222 221 226 220 221 176 157 191 215 157 201 173 157 192 156 221 212 202 182 197 199 155 146 126 110 63 180 133 161 170 195 130 66 10 306 90 31 76 242 205 148 243 224 166 285 211 247 180 7 258 141 171 182 222 155 189 143 202 173 192 63 49 42 353 303 279 129 124 93 232 150 229 209 237 329 173 164 163 195 175 184
221 220 218 217 220 220 218 215 217 217 213 191 173 164 227 199 193 249 158 140 136 266 292 223 250 249 189 215 195 167 163 177 170 164 203 159 186 122 137 209 192 154 191 159 174 237 175 267 240 187 222 136 254 57 231 325 310 274 134 194 213 206 139 251 263 190 149 160 167 203 217 165 186 154 177 201 207 177 177 144 149 199 175 174 171 205 188
218 218 216 214 215 215 214 217 210 214 212 208 175 123 220 210 175 184 201 111 180 200 212 235 189 229 243 257 229 195 183 162 190 146 137 131 228 179 162 137 179 170 203 124 65 343 172 158 62 62 230 256 17 222 199 51 269 271 350 119 284 211 188 177 173 213 158 195 214 240 236 186 196 210 174 217 241 200 162 153 173 181 220 182 175 209 195
217 216 215 213 210 211 213 214 210 206 201 201 170 176 187 147 166 164 127 179 311 322 307 343 340 271 269 263 218 240 246 316 122 110 136 123 148 214 165 155 213 185 125 159 201 160 185 133 210 165 358 198 186 213 294 189 282 266 194 226 237 300 167 183 75 253 278 261 229 233 278 225 241 252 235 229 306 298 157 174 211 230 193 175 191 195 194
216 215 213 213 211 207 209 211 209 206 199 197 180 152 192 173 156 131 82 79 123 301 310 224 81 259 208 243 174 206 141 209 205 196 207 127 144 211 341 251 140 80 243 220 169 139 182 129 207 135 251 237 96 173 198 263 227 212 327 307 279 245 151 140 214 273 33 277 356 207 238 218 225 232 251 255 233 242 189 216 224 235 181 207 235 199 195
214 213 212 212 210 207 206 206 205 204 201 198 192 186 116 118 174 174 143 186 215 149 239 322 245 257 31 76 36 136 227 194 122 131 129 153 164 159 192 197 170 161 200 166 144 81 55 139 197 162 208 256 144 262 170 260 292 147 230 263 348 311 171 156 221 183 201 245 239 233 255 239 248 232 242 252 248 241 223 223 227 221 208 200 219 186 214
212 211 211 210 210 208 205 204 202 201 200 196 184 172 186 181 163 135 75 50 101 118 211 261 269 352 285 36 251 204 208 148 169 174 178 190 146 152 136 114 62 56 107 120 121 146 139 72 95 150 160 277 143 202 228 198 219 279 221 244 195 178 122 231 171 205 263 289 276 262 274 279 256 232 231 236 242 247 247 226 228 225 233 238 239 207 216
213 211 210 209 208 206 204 202 199 199 198 195 185 182 185 166 169 170 171 170 130 287 184 242 260 293 22 241 233 57 93 133 139 138 102 104 115 104 121 137 125 131 119 73 45 119 77 99 139 223 172 234 142 219 148 316 212 270 268 236 149 101 231 190 74 281 266 244 256 120 172 257 268 240 229 230 234 230 245 245 228 219 226 227 228 236 223
214 211 209 207 206 204 202 200 197 195 195 194 187 184 182 169 195 191 171 175 186 221 164 259 300 275 117 266 331 28 191 162 152 155 146 112 133 140 144 153 135 126 141 133 137 167 162 165 232 201 152 286 99 268 154 203 47 276 246 239 172 208 215 144 210 202 247 256 230 185 216 264 264 226 225 219 223 208 225 235 237 236 225 219 216 235 234
215 212 209 206 204 202 200 198 194 192 188 192 151 168 215 214 189 196 191 183 116 106 107 235 299 3 265 240 38 340 14 152 158 158 158 153 160 163 161 165 165 152 100 79 110 115 163 214 152 157 184 210 120 261 88 232 177 238 243 179 180 223 180 196 219 235 260 268 170 181 185 227 255 233 224 219 205 184 214 230 230 234 230 216 215 222 225
216 213 210 206 204 201 198 195 191 186 183 161 106 152 211 240 200 197 186 173 161 114 194 235 280 254 356 77 248 240 72 133 153 143 158 162 174 183 178 163 177 162 139 167 165 197 205 161 233 266 264 226 174 192 165 175 204 249 255 202 213 205 215 229 229 216 243 263 188 192 218 245 262 266 246 237 208 187 203 229 226 227 234 211 215 228 224
216 213 210 206 204 202 198 194 188 182 175 163 158 185 205 235 187 175 179 175 161 147 169 118 229 327 324 28 120 199 185 149 142 155 161 167 171 169 212 127 275 167 173 132 132 225 122 246 150 246 93 215 160 156 205 143 259 277 243 205 219 202 216 228 223 231 248 262 228 25 301 267 254 320 279 252 216 196 226 249 241 217 229 209 221 224 229
217 214 211 207 203 200 197 192 188 181 179 175 190 197 168 213 161 173 178 164 137 109 139 153 285 225 254 226 179 299 157 134 82 97 155 140 195 158 270 207 223 207 206 166 207 71 231 192 183 196 144 194 150 218 142 202 246 252 254 172 210 214 226 229 224 241 247 250 257 289 282 274 248 214 248 253 172 192 214 234 245 226 217 223 235 236 235
219 215 211 208 204 200 196 192 186 183 194 199 198 66 117 41 156 156 144 135 131 189 147 149 208 210 247 229 99 258 177 98 58 120 219 174 180 136 221 99 72 330 241 193 220 207 213 165 123 216 234 152 182 201 185 228 234 246 259 262 254 246 237 221 227 240 243 241 203 220 236 238 257 238 229 259 265 239 201 222 240 225 210 222 245 250 245
221 217 214 209 206 200 194 190 185 187 192 185 214 203 141 141 141 142 140 127 111 134 118 175 196 189 240 60 69 219 155 158 180 156 215 142 196 108 187 91 204 196 227 190 266 104 321 76 180 215 58 226 128 83 248 239 232 254 258 262 259 257 251 221 234 240 239 235 215 225 238 249 262 277 275 251 251 251 215 221 203 207 222 223 239 237 237
218 217 215 210 205 200 191 182 181 192 204 203 202 162 138 141 149 149 149 151 126 198 183 242 164 164 202 144 195 231 156 111 171 194 180 202 43 156 148 129 187 184 270 73 309 187 169 213 134 175 224 120 165 223 241 240 221 235 252 257 260 258 262 254 254 241 243 227 209 226 236 246 254 257 256 260 265 260 239 235 220 221 237 241 240 243 230
218 217 214 209 205 193 186 177 189 194 208 196 188 135 137 141 150 160 178 193 127 160 179 215 174 218 181 221 206 217 126 68 170 65 110 123 14 134 118 134 246 227 105 201 221 174 193 160 124 245 145 181 225 210 234 193 226 233 239 250 256 232 234 225 238 250 207 204 205 218 229 238 237 244 249 255 260 265 257 248 243 219 233 246 250 249 236
217 213 211 207 189 162 179 202 184 192 193 127 136 137 129 111 33 141 215 294 280 141 180 182 207 210 187 202 64 208 144 184 150 105 151 152 172 130 138 203 244 110 253 223 193 190 221 149 227 239 204 216 237 205 226 214 222 233 240 243 250 251 246 249 245 256 247 215 216 229 233 237 243 245 247 246 249 253 259 248 240 228 227 232 243 250 243
214 209 198 158 142 180 198 211 193 125 117 124 111 93 93 111 166 155 252 231 245 150 241 202 234 194 127 167 219 174 146 195 104 149 122 199 115 234 171 210 233 192 252 209 224 146 130 202 227 233 251 237 246 235 215 221 229 235 243 248 247 249 250 252 206 184 220 247 252 247 245 245 251 240 229 241 239 244 241 243 245 240 237 238 240 243 252
205 187 148 162 160 194 195 175 125 122 121 125 112 97 138 174 130 203 204 180 171 221 213 208 220 175 169 200 146 144 178 156 156 177 159 199 123 247 151 179 246 133 278 303 267 139 211 230 230 244 254 241 217 236 221 237 238 236 240 245 244 249 256 253 193 210 222 229 239 244 228 227 232 239 226 238 243 241 242 245 240 236 231 231 238 240 238
158 181 164 163 194 162 104 131 125 122 128 136 160 126 150 178 178 216 126 143 239 240 170 220 203 182 189 191 151 207 186 157 169 175 152 201 222 176 205 89 255 132 248 215 229 133 174 250 237 220 264 227 214 226 211 227 233 238 240 245 249 252 254 252 242 226 230 242 244 256 255 236 234 238 236 222 223 234 242 236 233 234 227 228 228 228 232
174 120 153 169 125 131 137 135 113 102 122 154 127 152 136 184 199 200 157 213 218 236 180 181 121 177 196 185 179 190 135 76 32 98 128 175 205 85 112 186 223 141 253 236 248 95 236 283 242 231 253 123 201 205 209 221 229 238 242 245 250 248 248 250 250 245 239 242 250 253 248 245 244 243 241 241 238 236 238 244 239 227 224 226 225 227 233
180 165 127 98 109 118 129 109 164 138 124 209 151 183 165 175 119 248 217 205 213 187 253 169 193 191 195 174 183 121 302 141 123 136 120 179 215 129 208 109 287 200 252 228 94 123 134 259 254 256 205 187 209 191 205 216 228 234 244 239 241 242 244 246 248 251 242 236 240 245 247 243 241 241 238 235 236 240 244 247 252 249 231 225 223 232 232
104 109 112 109 123 173 175 163 210 153 160 182 144 186 180 180 208 194 214 209 256 137 229 71 160 94 77 111 21 25 153 180 132 210 132 181 86 62 135 202 169 243 231 40 100 208 212 239 252 253 156 218 178 208 203 216 220 226 234 236 235 238 237 239 241 247 251 230 233 237 245 245 242 241 235 228 233 241 242 240 242 249 246 235 225 228 235
121 104 97 174 142 229 173 204 192 101 268 210 158 186 180 202 198 159 199 201 160 178 197 149 175 136 165 154 141 140 111 307 144 85 15 261 108 169 158 212 216 259 56 355 196 223 238 246 243 252 201 220 213 219 211 223 228 236 245 243 241 244 242 243 250 253 258 245 229 236 238 242 245 246 228 224 221 228 238 242 240 236 242 233 233 233 235
142 201 125 161 194 194 179 225 195 180 185 192 174 197 180 207 205 198 208 171 141 184 145 143 147 151 147 142 71 300 136 168 152 131 200 141 100 217 178 231 179 45 148 231 249 276 298 256 249 215 247 240 240 227 227 226 226 222 236 247 242 238 239 237 240 236 246 247 236 226 229 235 235 240 234 230 226 219 227 239 241 224 224 223 233 242 240
175 172 168 177 193 215 190 187 171 185 235 167 197 196 196 213 204 208 170 110 135 151 156 160 147 138 145 187 143 173 116 137 151 200 144 137 147 217 180 58 73 91 264 228 244 238 241 248 252 202 225 225 233 230 215 221 227 224 222 244 250 245 237 230 235 235 238 243 241 207 226 224 223 227 232 231 223 220 223 232 233 216 203 202 225 232 235
141 206 178 206 197 210 185 192 200 185 167 190 204 195 204 204 202 181 144 147 155 158 137 149 149 156 151 169 111 15 90 168 157 197 105 138 194 239 17 125 213 198 201 232 234 244 249 254 249 229 186 201 218 230 226 226 221 222 227 238 251 255 255 238 227 233 239 237 234 222 226 225 224 223 230 240 233 222 225 227 229 204 191 212 225 223 207
199 173 162 205 203 160 196 213 174 187 197 198 186 196 198 150 127 165 185 160 150 144 145 143 138 132 82 312 101 163 156 150 126 257 164 177 69 63 208 216 235 227 216 224 238 238 248 254 155 177 186 198 202 218 228 228 224 223 231 236 242 248 255 254 240 232 232 221 221 222 230 228 222 216 216 226 237 235 220 222 219 206 209 224 226 209 202
183 179 195 197 184 172 196 184 177 207 188 171 193 193 143 170 194 176 152 143 148 161 160 149 156 127 162 160 124 162 186 214 157 202 114 108 183 195 179 213 197 234 234 224 241 248 244 186 180 181 187 196 208 216 223 222 218 221 225 230 237 241 245 251 253 249 228 210 216 218 226 224 211 213 224 228 235 247 229 206 206 209 209 211 211 210 213
199 235 238 159 97 340 160 165 194 206 173 189 189 190 186 195 183 156 153 150 157 139 130 108 144 109 190 136 154 187 191 207 165 180 135 192 193 203 140 229 217 227 241 228 221 240 206 158 165 170 201 201 212 213 225 230 222 224 230 232 237 242 244 243 249 253 243 218 216 219 220 196 200 213 210 216 223 243 216 196 207 212 214 206 206 210 215
242 235 241 200 186 178 155 183 192 192 193 198 190 195 186 197 170 172 178 146 151 141 153 162 177 128 158 98 148 169 220 160 141 200 177 189 173 165 210 222 228 226 237 238 153 216 209 208 191 224 220 219 219 222 225 230 224 223 227 231 234 235 242 243 245 250 253 243 229 218 214 215 219 215 215 201 214 214 229 240 225 216 211 208 209 211 213
190 203 188 188 208 192 188 186 188 197 197 191 194 200 186 193 166 164 164 145 152 159 175 166 151 155 172 188 194 146 73 75 190 176 200 232 183 202 213 219 229 234 234 237 233 207 194 198 203 212 213 217 221 225 226 229 229 231 231 233 233 233 236 238 239 238 242 249 239 223 228 230 213 178 176 175 176 186 222 243 232 210 207 209 214 210 207